Quillayute, WA

1:30 PM PDT on September 23, 2017 (GMT -0700)
Quillayute

Weather History for KUIL - January, 2012

Change the Weather History Date:

Thursday, January 26, 2012

  Actual Average Record
Temperature  
Mean Temperature 39 °F 42 °F  
Max Temperature 46 °F 48 °F 61 °F (2014)
Min Temperature 32 °F 36 °F 19 °F (1972)
Degree Days  
Heating Degree Days 26 23  
Month to date heating degree days 610  
Since 1 July heating degree days 3088  
Cooling Degree Days 0 0  
Month to date cooling degree days 0  
Year to date cooling degree days 0  
Moisture  
Dew Point 34 °F    
Average Humidity 82    
Maximum Humidity 100    
Minimum Humidity 66    
Precipitation  
Precipitation 0.04 in 0.44 in 2.67 in (1976)
Month to date precipitation 12.46  
Year to date precipitation 12.46  
Sea Level Pressure  
Sea Level Pressure 30.36 in    
Wind  
Wind Speed 8 mph (NW)    
Max Wind Speed 24 mph    
Max Gust Speed 35 mph    
Visibility 10 miles    
Events Rain    
T = Trace of Precipitation, MM = Missing Value Source: NWS Daily Summary

Daily Weather History Graph

Daily Weather History Graph

Search for Another Location

Airport or City:

Trip Planner

Search our weather history database for the weather conditions in past years. The results will help you decide how hot, cold, wet, or windy it might be!

Date:

Astronomy

Jan. 26, 2012 Rise Set
Actual Time 7:53 AM PST 5:08 PM PST
Civil Twilight 7:19 AM PST 5:42 PM PST
Nautical Twilight 6:41 AM PST 6:20 PM PST
Astronomical Twilight 6:05 AM PST 6:56 PM PST
Moon 9:02 AM PST (1/26) 9:30 PM PST (1/26)
Length of Visible Light 10h 22m
Length of Day
9h 15m
Waxing Crescent, 13% of the Moon is Illuminated
Jan 26
Waxing Crescent
Jan 30
First Quarter
Feb 7
Full
Feb 14
Last Quarter
Feb 21
New

Hourly Weather History & Observations

Time (PST) Temp. Windchill Dew Point Humidity Pressure Visibility Wind Dir Wind Speed Gust Speed Precip Events Conditions
12:53 AM 44.1 °F 36.2 °F 41.0 °F 89% 30.01 in 9.0 mi West 18.4 mph 29.9 mph 0.00 in Rain Light Rain
1:53 AM 42.1 °F 33.9 °F 39.0 °F 89% 30.05 in 10.0 mi West 17.3 mph 32.2 mph 0.01 in Rain Light Rain
2:33 AM 42.8 °F 36.6 °F 37.4 °F 81% 30.08 in 10.0 mi West 11.5 mph 21.9 mph 0.00 in   Mostly Cloudy
2:53 AM 41.0 °F 32.5 °F 35.1 °F 79% 30.09 in 10.0 mi West 17.3 mph 28.8 mph 0.00 in   Mostly Cloudy
3:53 AM 41.0 °F 33.9 °F 34.0 °F 76% 30.12 in 10.0 mi WNW 12.7 mph 18.4 mph 0.00 in   Mostly Cloudy
4:53 AM 41.0 °F 37.1 °F 34.0 °F 76% 30.14 in 10.0 mi WNW 5.8 mph - N/A   Mostly Cloudy
5:53 AM 39.0 °F 34.0 °F 35.1 °F 86% 30.17 in 10.0 mi West 6.9 mph - 0.03 in   Partly Cloudy
6:53 AM 39.9 °F 32.5 °F 36.0 °F 86% 30.20 in 10.0 mi WNW 12.7 mph 20.7 mph 0.00 in   Mostly Cloudy
7:53 AM 39.9 °F 32.9 °F 33.1 °F 77% 30.25 in 10.0 mi WNW 11.5 mph 17.3 mph N/A   Partly Cloudy
8:53 AM 39.9 °F 36.7 °F 34.0 °F 79% 30.29 in 10.0 mi Variable 4.6 mph - 0.00 in   Scattered Clouds
9:53 AM 39.9 °F 31.8 °F 34.0 °F 79% 30.34 in 10.0 mi NNW 15.0 mph 27.6 mph 0.00 in Rain Light Rain
10:53 AM 42.1 °F 40.2 °F 35.1 °F 76% 30.38 in 10.0 mi Variable 3.5 mph - 0.00 in Rain Light Rain
11:53 AM 42.1 °F 39.2 °F 36.0 °F 79% 30.40 in 10.0 mi Variable 4.6 mph - 0.00 in   Overcast
12:53 PM 41.0 °F 36.4 °F 35.1 °F 79% 30.42 in 10.0 mi WNW 6.9 mph - 0.00 in   Overcast
1:37 PM 44.6 °F 43.1 °F 35.6 °F 71% 30.42 in 10.0 mi NW 3.5 mph - N/A   Overcast
1:53 PM 45.0 °F 41.8 °F 35.1 °F 68% 30.43 in 10.0 mi NNW 5.8 mph - N/A   Mostly Cloudy
2:10 PM 42.8 °F 39.3 °F 32.0 °F 66% 30.43 in 10.0 mi NW 5.8 mph - N/A   Mostly Cloudy
2:53 PM 43.0 °F 39.5 °F 34.0 °F 71% 30.45 in 10.0 mi NW 5.8 mph - N/A   Partly Cloudy
3:53 PM 43.0 °F 39.5 °F 33.1 °F 68% 30.48 in 10.0 mi NW 5.8 mph - N/A   Mostly Cloudy
4:53 PM 39.9 °F - 30.9 °F 70% 30.50 in 10.0 mi Calm Calm - N/A   Scattered Clouds
5:53 PM 36.0 °F - 33.1 °F 89% 30.52 in 10.0 mi Calm Calm - N/A   Mostly Cloudy
6:53 PM 33.1 °F - 30.9 °F 92% 30.54 in 10.0 mi Calm Calm - N/A   Clear
7:53 PM 34.0 °F 31.0 °F 33.1 °F 96% 30.57 in 10.0 mi East 3.5 mph - N/A   Mostly Cloudy
8:53 PM 33.1 °F 26.9 °F 32.0 °F 96% 30.58 in 10.0 mi East 6.9 mph - N/A   Scattered Clouds
9:53 PM 34.0 °F 28.8 °F 33.1 °F 96% 30.60 in 10.0 mi East 5.8 mph - N/A   Mostly Cloudy
10:53 PM 32.0 °F 26.4 °F 32.0 °F 100% 30.60 in 10.0 mi East 5.8 mph - N/A   Clear
11:53 PM 32.0 °F 28.7 °F 30.9 °F 96% 30.61 in 10.0 mi ENE 3.5 mph - N/A   Partly Cloudy